Flag for Canada Weather past 2 weeks in Qikiqtarjuaq, Nunavut Territory, Canada

Now
-8 °F

Light snow. Overcast.


Feels Like: -23 °F
Forecast: -18 / -8 °F
Wind: 8 mph from Southwest

Location: Broughton Island Airport

Current Time: Jan 30, 2015 at 11:15:58 AM

Latest Report: Jan 30, 2015 at 10:00 AM


Visibility: 5 mi

Pressure: 29.75 "Hg

Humidity: 77%

Dew point: -13 °F

Location of QikiqtarjuaqLocation

Historic Weather in Qikiqtarjuaq — Graph

°F

Qikiqtarjuaq temperature yesterday

Maximum temperature yesterday: -8 °F (at 11:00 PM)
Minimum temperature yesterday: -26 °F (at 12:00 AM)
Average temperature yesterday: -16 °F

Past Weeks' High & Low Weather Summary

 TemperatureHumidityPressure
High-4 °F (Jan 18, 1:00 AM)84% (Jan 18, 2:46 AM)30.08 "Hg (Jan 18, 2:46 AM)
Low-42 °F (Jan 26, 2:59 AM)48% (Jan 27, 2:00 PM)29.00 "Hg (Jan 18, 7:00 AM)
Average-23 °F67%29.72 "Hg
* Reported Jan 15 10:00 AM — Jan 30 10:00 AM, Qikiqtarjuaq, Weather by CustomWeather, © 2014

Note: Actual official high and low records may vary slightly from our data, if they occured in-between our weather recording intervals... More about our weather records

Advertising

Qikiqtarjuaq weather history for previous 24 hours

 ConditionsComfort  
Time TempWeatherWind HumidityBarometerVisibility
10:00 AM
Jan 30
-8 °FLight snow. Overcast.8 mph77%29.75 "Hg5 mi
9:00 AM-8 °FLight snow. Overcast.13 mph77%29.73 "Hg5 mi
8:00 AM-8 °FLight snow. Overcast.10 mph77%29.70 "Hg4 mi
7:00 AM-8 °FLight snow. Overcast.14 mph77%29.70 "Hg3 mi
6:51 AM-8 °FLight snow. Overcast.13 mph77%29.70 "Hg2 mi
6:00 AM-8 °FLight snow. Overcast.10 mph77%29.69 "Hg4 mi
5:52 AM-8 °FLight snow. Overcast.12 mph77%29.69 "Hg3 mi
5:00 AM-8 °FLight snow. Overcast.9 mph84%29.70 "Hg3 mi
4:47 AM-8 °FLight snow. Overcast.8 mph77%29.70 "Hg3 mi
4:00 AM-8 °FLight snow. Overcast.5 mph77%29.70 "Hg3 mi
3:00 AM-9 °FLight snow. Overcast.9 mph84%29.70 "Hg3 mi
2:57 AM-8 °FLight snow. Overcast.7 mph77%29.70 "Hg3 mi
2:00 AM-8 °FLight snow. Mostly cloudy.5 mph77%29.71 "Hg9 mi
1:03 AM-11 °FMostly cloudy.No wind84%29.71 "Hg9 mi
12:00 AM-9 °FLight snow. Overcast.5 mph77%29.72 "Hg3 mi
11:49 PM
Jan 29
-8 °FLight snow. Overcast.2 mph77%29.72 "Hg5 mi
11:00 PM-8 °FLight snow. Overcast.5 mph77%29.73 "Hg2 mi
10:00 PM-9 °FLight snow. Overcast.2 mph84%29.74 "Hg1 mi
9:01 PM-9 °FLight snow. Ice fog.2 mph77%29.75 "Hg1 mi
8:00 PM-11 °FLight snow. Overcast.No wind84%29.77 "Hg8 mi
7:52 PM-9 °FLight snow. Mostly cloudy.No wind77%29.77 "Hg9 mi
7:00 PM-11 °FLight snow. Overcast.2 mph76%29.78 "Hg2 mi
6:00 PM-13 °FSnow flurries. Overcast.7 mph76%29.79 "Hg2 mi
5:00 PM-15 °FSnow flurries. Overcast.2 mph76%29.80 "Hg7 mi
4:00 PM-15 °FSnow flurries. Overcast.5 mph76%29.82 "Hg4 mi
3:00 PM-15 °FSnow flurries. Mostly cloudy.8 mph76%29.81 "Hg5 mi
2:00 PM-15 °FSnow flurries. Cloudy.10 mph69%29.82 "Hg10 mi
1:00 PM-17 °FSnow flurries. More clouds than sun.10 mph76%29.83 "Hg10 mi
12:00 PM-17 °FLight snow. Mostly cloudy.12 mph76%29.84 "Hg7 mi
11:00 AM-17 °FLight snow. Mostly cloudy.12 mph76%29.85 "Hg8 mi
Weather by CustomWeather, © 2014

See weather overviewHow to use our weather pages